Location: Lac de la Montagne noire
(46.1952°N, 74.2701°W)
Time: 10:03:36
(UTC-04:00)

ISS - Pass Details

Date: 25 March 2019
Orbit: 408 x 410 km, 51.6° (Epoch: 25 April)

Event Time Altitude Azimuth Distance (km) Brightness Sun altitude
Rises 19:47:42 0° 237° (WSW) 2,326 0.8 -6.2°
Reaches altitude 10° 19:49:46 10° 235° (SW) 1,468 -0.3 -6.6°
Maximum altitude 19:53:04 75° 150° (SSE) 426 -3.8 -7.2°
Drops below altitude 10° 19:56:21 10° 65° (ENE) 1,473 -1.5 -7.7°
Enters shadow 19:57:06 - 64° (ENE) 1,780 -1.1 -7.8°
